Location: Coed Ely
(51.5661°N, 3.4150°W)
Time: 23:49:45
(UTC+00:00)

Cosmos 1553 Rocket - Pass Details

Date: 28 January 2021
Orbit: 941 x 1008 km, 82.9° (Epoch: 01 March)

Event Time Altitude Azimuth Distance (km) Brightness Sun altitude
Rises 19:17:07 0° 348° (NNW) 3,750 7.2 -21.8°
Reaches altitude 10° 19:19:42 10° 345° (NNW) 2,792 6.5 -22.2°
Maximum altitude 19:26:01 63° 266° (W) 1,108 4.5 -23.1°
Drops below altitude 10° 19:32:13 10° 187° (S) 2,740 6.4 -24.1°
Sets 19:34:44 0° 184° (S) 3,674 7.1 -24.5°
